Probability
0 0 0 0 0 0 0 0 0 0 0 0 0 0 0 0 0 0 0 0 0 0 0 0 1 2 2 1 1 2 2 2 4 6 6 5 3 1 0 0 0 0 0 0
0 0 0 0 0 0 0 0 0 0 0 0 0 0 0 0 0 0 0 0 0 0 0 0 0 1 1 1 1 2 2 1 3 4 4 4 2 1 0 0 0 0 0 0
0 0 0 0 0 0 0 0 0 0 0 0 0 0 0 0 0 0 0 0 0 0 0 0 0 0 0 1 2 2 1 0 1 2 2 2 1 0 0 0 0 0 0 0
0 0 0 0 0 0 0 0 0 0 0 0 0 0 0 0 0 0 0 0 0 0 0 0 0 0 0 1 2 2 1 0 0 0 1 1 0 0 0 0 0 0 0 0
0 0 0 0 0 0 0 0 0 0 0 0 0 0 0 0 0 0 0 0 0 0 0 0 0 0 0 1 2 2 1 0 0 0 1 1 0 0 0 0 0 0 0 0
0 0 0 0 0 0 0 0 0 0 0 0 0 0 0 0 0 0 0 0 0 0 0 0 0 0 0 0 1 1 0 0 0 0 1 1 0 0 0 0 0 0 0 0
0 0 0 0 0 0 0 0 0 0 0 0 0 0 0 0 0 0 0 0 0 0 0 0 0 0 0 0 0 0 0 0 0 0 0 0 0 0 0 0 0 0 0 0
0 0 0 0 0 0 0 0 0 0 0 0 0 0 0 0 0 0 0 0 0 0 0 0 0 0 0 0 0 0 0 0 0 0 0 0 0 0 0 0 0 0 0 0
0 0 0 0 0 0 0 0 0 0 0 0 0 0 0 0 0 0 0 0 0 0 0 0 0 0 0 0 0 0 0 0 0 0 0 0 0 0 0 0 0 0 0 0
0 0 0 0 0 0 0 0 0 0 0 0 0 0 0 0 0 0 0 0 0 0 0 0 0 0 0 0 0 0 0 0 0 0 0 0 0 0 0 0 0 0 0 0
0 0 0 0 0 0 0 0 0 0 0 0 0 0 0 0 0 0 0 0 0 0 0 0 0 0 0 0 0 0 0 0 0 0 0 0 0 0 0 0 0 0 0 0
0 0 0 0 0 0 0 0 0 0 0 0 0 0 0 0 0 0 0 0 0 0 0 0 0 0 0 0 0 0 0 0 0 0 0 0 0 0 0 0 0 0 0 0
0 0 0 0 0 0 0 0 0 0 0 0 0 0 0 0 0 0 0 0 0 0 0 0 0 0 0 0 0 0 0 0 0 0 0 0 0 0 0 0 0 0 0 0
0 0 0 0 0 0 0 0 0 0 0 0 0 0 0 0 0 0 0 0 0 0 0 0 0 0 0 0 0 0 0 0 0 0 0 0 0 0 0 0 0 0 0 0
0 0 0 0 0 0 0 0 0 0 0 0 0 0 0 0 0 0 0 0 0 0 0 0 0 0 0 0 0 0 0 0 0 0 0 0 0 0 0 0 0 0 0 0
0 0 0 0 0 0 0 0 0 0 0 0 0 0 0 0 0 0 0 0 0 0 0 0 0 0 0 0 0 0 0 0 0 0 0 0 0 0 0 0 0 0 0 0
0 0 0 0 0 0 0 0 0 0 0 0 0 0 0 0 0 0 0 0 0 0 0 0 0 0 0 0 0 0 0 0 0 0 0 0 0 0 0 0 0 0 0 0
0 0 0 0 0 0 0 0 0 0 0 0 0 0 0 0 0 0 0 0 0 0 0 0 0 0 0 0 0 0 0 0 0 0 0 0 0 0 0 0 0 0 0 0
0 0 0 0 0 0 0 0 0 0 0 0 0 0 0 0 0 0 0 0 0 0 0 0 0 0 0 0 0 0 0 0 0 0 0 0 0 0 0 0 0 0 0 0
0 0 0 0 0 0 0 0 0 0 0 0 0 0 0 0 0 0 0 0 0 0 0 0 0 0 0 0 0 0 0 0 0 0 0 0 0 0 0 0 0 0 0 0
0 0 0 0 0 0 0 0 0 0 0 0 0 0 0 0 0 0 0 0 0 0 0 0 0 0 0 0 0 0 0 0 0 0 0 0 0 0 0 0 0 0 0 0
0 0 0 0 0 0 0 0 0 0 0 0 0 0 0 0 0 0 0 0 0 0 0 0 0 0 0 0 0 0 0 0 0 0 0 0 0 0 0 0 0 0 0 0
0 0 0 0 0 0 0 0 0 0 0 0 0 0 0 0 0 0 0 0 0 0 0 0 0 0 0 0 0 0 0 0 0 0 0 0 0 0 0 0 0 0 0 0
0 0 0 0 0 0 0 0 0 0 0 0 0 0 0 0 0 0 0 0 0 0 0 0 0 0 0 0 0 0 0 0 0 0 0 0 0 0 0 0 0 0 0 0
0 0 0 0 0 0 0 0 0 0 0 0 0 0 0 0 0 0 0 0 0 0 0 0 0 0 0 0 0 0 0 0 0 0 0 0 0 0 0 0 0 0 0 0
0 0 0 0 0 0 0 0 0 0 0 0 0 0 0 0 0 0 0 0 0 0 0 0 0 0 0 0 0 0 0 0 0 0 0 0 0 0 0 0 0 0 0 0
Wind_Speed
4 3 5 4 5 6 6 7 9 6 2 4 8 11 10 6 5 5 4 2 2 2 2 3 3 3 3 2 3 4 3 3 3 2 2 2 2 2 2 2 3 3 3 3
3 7 5 4 5 6 8 9 9 6 2 4 7 11 9 7 6 5 4 3 3 2 2 2 3 3 3 3 2 3 3 3 3 3 2 1 2 2 2 2 2 3 3 3
6 2 3 5 5 6 8 7 7 7 6 5 6 8 6 5 5 4 4 3 3 3 3 3 3 3 2 2 2 2 3 3 3 3 2 1 1 1 0 1 2 2 3 3
6 4 3 5 6 6 7 2 5 6 5 4 2 6 4 3 4 5 4 3 3 3 3 3 3 2 2 2 2 2 2 3 3 3 3 3 2 2 2 2 2 2 3 2
3 2 3 5 4 4 3 3 4 5 5 6 5 5 6 3 3 3 3 3 2 2 2 3 3 3 2 2 2 1 2 2 2 3 3 3 2 1 1 1 1 1 2 3
4 2 2 2 2 3 2 3 4 3 2 6 6 5 6 2 3 1 2 2 2 2 3 3 3 3 2 2 1 1 1 1 1 1 2 3 3 2 2 2 2 1 1 2
5 5 2 1 2 2 1 0 1 2 3 6 3 5 5 1 2 2 1 2 2 3 3 3 3 2 2 2 1 1 1 1 1 1 1 2 2 3 3 3 3 2 1 1
4 5 5 3 2 2 4 3 3 3 4 3 2 6 4 2 2 2 2 3 3 3 2 2 2 2 1 1 1 0 1 1 1 1 1 1 1 1 1 2 2 2 2 2
3 4 2 3 2 3 3 3 2 2 3 4 5 4 2 1 0 0 1 2 2 2 2 2 2 1 1 1 1 0 0 0 0 0 0 0 0 1 1 1 1 1 1 1
2 3 1 2 1 4 3 2 1 3 3 5 6 5 3 3 3 1 1 1 1 2 2 2 2 2 1 1 1 1 1 0 0 0 0 0 0 1 1 1 1 1 1 1
2 2 1 2 4 4 4 3 3 3 3 3 5 4 1 2 2 1 1 1 1 1 1 1 1 2 2 2 2 1 1 1 1 1 1 1 1 1 1 1 1 1 1 2
2 1 3 4 1 2 3 4 5 4 5 4 4 6 1 3 3 2 2 1 2 2 2 2 2 2 2 2 2 2 2 1 1 1 1 1 1 1 1 1 1 1 1 2
3 3 1 2 1 1 3 4 5 3 2 4 5 6 1 1 2 2 2 2 2 2 2 2 2 1 2 2 2 2 2 2 2 1 1 1 1 1 1 1 1 1 1 2
2 3 6 7 3 2 4 5 6 6 5 6 9 8 4 2 2 2 2 2 2 2 2 2 2 2 2 2 2 2 2 2 2 2 1 1 1 1 1 1 1 1 1 1
2 4 6 7 7 5 7 8 9 12 11 9 9 8 7 4 3 2 2 2 2 3 3 3 2 2 2 2 2 2 2 2 1 1 1 2 2 2 2 1 1 2 1 1
3 4 3 6 6 6 9 11 11 12 12 12 11 11 5 3 2 2 2 2 2 3 3 3 3 3 3 3 3 2 2 2 2 2 2 2 2 2 1 1 1 2 2 1
5 4 3 5 3 3 11 11 11 9 8 8 12 9 3 2 1 1 1 1 2 3 3 4 4 3 3 3 2 2 2 2 2 2 2 2 2 2 2 2 1 1 2 2
6 4 3 3 1 10 9 3 7 9 8 7 6 4 2 2 0 1 2 2 3 3 3 3 4 4 3 3 2 2 2 2 2 2 2 2 2 2 2 2 2 2 2 2
6 6 4 4 6 10 6 4 4 5 7 5 6 4 2 1 1 0 2 3 2 2 3 3 3 4 4 3 3 2 2 2 2 2 3 3 3 2 2 2 3 2 2 2
5 5 5 5 6 9 5 1 1 2 6 2 2 2 2 1 3 2 3 3 3 3 3 3 3 4 4 4 3 2 3 2 3 3 3 3 3 3 3 3 3 3 2 3
7 7 9 8 8 8 4 1 2 5 5 1 1 0 0 1 1 1 3 4 3 3 4 4 3 3 3 4 3 2 3 4 4 3 3 3 3 3 3 3 3 2 2 2
8 7 8 6 8 9 1 3 4 2 2 2 2 2 1 1 2 3 3 3 4 4 4 4 3 3 4 4 3 3 4 5 4 3 3 3 3 3 2 2 3 2 2 2
7 6 5 7 7 1 2 2 0 1 1 1 2 2 1 1 2 2 3 3 3 4 4 4 3 4 4 4 3 3 5 5 4 4 4 4 4 3 2 2 2 2 2 2
4 2 3 3 4 2 0 1 2 2 1 2 2 2 1 2 2 3 3 2 3 4 4 4 4 4 4 4 4 4 4 4 4 4 4 4 3 3 3 2 2 2 2 2
3 2 3 4 3 1 0 0 1 2 2 3 2 2 2 2 3 3 3 3 3 4 4 3 3 3 4 5 4 4 4 4 4 4 4 4 3 3 3 3 2 3 3 3
4 4 5 5 3 2 2 1 1 1 1 1 2 3 3 2 3 3 3 3 3 3 3 3 3 4 4 4 4 4 3 3 3 4 3 3 3 3 3 3 4 6 5 7
Wind_Direction
187 220 227 229 229 261 288 284 283 287 295 271 261 270 272 257 243 244 234 217 203 209 182 151 155 144 138 157 174 175 180 184 170 165 169 178 195 189 189 189 181 178 177 179
211 228 237 253 257 256 265 273 280 289 319 291 280 275 266 246 233 224 226 211 201 191 157 147 138 134 147 161 169 172 181 185 182 179 181 184 167 188 190 181 177 177 179 185
225 233 235 245 253 260 256 257 277 295 310 262 277 278 240 227 214 206 205 198 184 179 177 161 146 141 137 151 166 166 169 177 176 170 153 117 96 73 181 189 186 192 187 188
241 234 235 240 245 252 261 283 284 289 297 281 257 287 259 223 199 204 206 189 185 182 173 162 153 148 155 165 160 169 167 171 176 169 167 172 188 203 215 195 189 185 180 187
234 208 236 241 245 247 257 319 291 276 267 279 252 260 268 221 223 214 184 162 169 158 162 156 152 155 150 138 143 164 153 160 168 169 173 180 197 209 182 151 167 191 184 187
247 262 254 260 277 248 276 291 269 250 242 260 229 229 273 220 220 193 134 136 135 117 107 100 106 106 103 104 106 106 132 137 133 154 175 186 197 189 175 181 190 203 205 200
232 221 211 252 272 210 213 314 318 289 235 248 188 220 252 185 105 128 136 118 112 102 105 105 99 100 106 112 113 105 115 109 109 151 180 199 199 190 196 195 197 205 215 226
235 236 188 202 220 222 220 200 189 233 259 285 217 233 245 144 95 87 87 95 93 89 92 97 106 119 127 132 123 127 172 151 157 189 197 187 184 204 216 205 197 209 215 223
239 243 167 187 224 222 225 218 234 263 286 282 256 229 217 113 1 107 79 84 91 86 86 80 71 88 108 111 118 210 232 157 168 179 173 197 203 271 261 248 196 206 217 233
280 258 196 139 219 231 233 224 183 202 240 265 269 244 237 208 233 203 83 58 66 72 60 59 55 46 50 64 61 48 18 0 16 53 73 321 328 296 279 252 253 240 229 233
251 230 225 194 207 198 181 199 209 223 228 234 275 269 352 148 128 131 139 98 84 108 84 50 39 36 32 45 54 33 23 24 18 19 6 329 298 286 278 254 247 254 264 238
194 225 244 224 216 322 232 208 185 197 239 234 258 269 48 84 73 79 66 48 58 69 70 54 39 33 30 30 37 22 2 2 -0 360 359 339 341 323 292 278 272 256 255 259
157 176 248 278 253 245 240 228 224 226 229 222 227 256 147 102 69 62 42 37 55 55 58 51 41 23 17 16 19 6 352 354 355 358 354 352 342 325 302 300 307 290 263 262
205 205 208 221 234 199 231 234 221 210 219 236 233 250 262 291 13 17 24 36 33 34 34 27 15 7 5 6 9 359 346 0 351 346 346 339 328 320 317 318 320 304 278 268
187 230 244 262 275 265 249 242 224 220 225 230 246 255 264 277 306 337 12 21 22 16 13 6 354 347 351 354 352 352 343 355 343 333 331 322 330 334 337 336 326 318 302 285
191 220 248 265 252 258 262 253 238 235 237 243 258 266 264 272 332 3 8 24 6 355 350 348 347 339 336 338 335 339 334 339 340 322 319 327 333 334 335 329 323 314 305 292
185 185 211 254 256 292 260 233 221 224 222 224 242 248 242 250 289 311 334 357 351 345 345 342 339 335 327 323 331 331 330 342 340 323 323 324 322 321 316 312 315 298 291 288
182 186 212 255 265 240 243 192 206 219 233 231 244 263 248 215 235 34 25 25 354 348 345 344 340 333 330 336 345 347 350 347 337 328 323 323 325 320 317 313 302 302 299 280
198 190 206 208 240 264 264 226 198 214 246 231 232 251 265 251 251 340 31 23 356 342 344 344 343 336 341 347 346 353 343 344 341 328 325 326 325 314 311 306 302 301 296 289
204 198 211 213 228 240 249 200 228 186 253 228 204 242 259 242 249 268 10 11 3 2 3 358 354 354 350 348 354 356 343 341 326 323 324 325 322 310 303 302 300 303 298 293
185 198 214 223 237 258 273 246 136 188 245 99 104 284 276 216 255 339 7 4 360 359 2 3 1 352 343 346 354 344 336 319 321 332 331 329 325 317 315 315 312 309 301 300
185 188 203 207 223 245 233 131 180 216 66 72 55 38 40 15 3 359 0 357 359 359 357 355 351 343 346 352 351 336 324 325 336 337 331 327 324 319 319 316 314 312 304 296
206 200 197 202 214 238 151 161 125 73 89 47 40 22 29 348 319 330 338 346 348 348 344 346 343 336 344 351 352 331 325 336 335 334 329 326 328 325 322 311 308 307 296 288
234 241 218 244 253 246 93 57 36 33 35 21 29 8 341 305 309 318 321 332 340 342 339 340 340 335 334 342 346 331 328 334 328 319 319 322 323 323 326 315 300 289 284 281
233 201 213 244 265 295 263 189 81 43 38 31 21 7 335 315 309 311 315 323 327 326 327 330 327 319 320 330 331 330 331 331 318 311 313 315 313 311 311 308 293 284 273 275
209 205 210 233 212 205 231 141 108 108 29 357 351 336 336 323 302 308 308 315 316 315 321 324 321 315 314 319 317 321 322 321 313 310 312 309 309 309 308 310 310 299 292 297